Weather History for Pueblo, CO

Change the Weather History Date:

Thursday, December 27, 2012

  Actual Average Record
Temperature  
Mean Temperature 17 °F 30 °F  
Max Temperature 32 °F 46 °F 75 °F (1980)
Min Temperature 1 °F 13 °F -15 °F (1911)
Degree Days  
Heating Degree Days 48 35  
Month to date heating degree days 913 943  
Since 1 July heating degree days 2051 2224  
Cooling Degree Days 0 0  
Month to date cooling degree days 0 0  
Year to date cooling degree days 1322 897  
Moisture  
Dew Point 8 °F    
Average Humidity 71    
Maximum Humidity 88    
Minimum Humidity 53    
Precipitation  
Precipitation 0.00 in 0.01 in 0.61 in (1979)
Month to date precipitation 0.30 0.34  
Year to date precipitation 5.00 12.53  
Snow  
Snow 0.00 in 0.20 in 6.60 in (1979)
Month to date snowfall 4.0 4.8  
Since 1 July snowfall 5.6 10.8  
Snow Depth 0.00 in    
Sea Level Pressure  
Sea Level Pressure 29.88 in    
Wind  
Wind Speed 5 mph (SE)    
Max Wind Speed 18 mph    
Max Gust Speed 22 mph    
Visibility 10 miles    
Events      
T = Trace of Precipitation, MM = Missing Value Source: NWS Daily Summary

Daily Weather History Graph

Daily Weather History Graph

Search for Another Location

Airport:

Trip Planner

Search our weather history database for the weather conditions in past years. The results will help you decide how hot, cold, wet, or windy it might be!

Date:

Astronomy

Dec. 27, 2012 Rise Set
Actual Time 7:13 AM MST 4:45 PM MST
Civil Twilight 6:44 AM MST 5:14 PM MST
Nautical Twilight 6:11 AM MST 5:47 PM MST
Astronomical Twilight 5:38 AM MST 6:19 PM MST
Moon 4:29 PM MST (12/27) 6:27 AM MST (12/27)
Length of Visible Light 10h 30m
Length of Day
9h 31m
Full, 100% of the Moon is Illuminated
Dec 27
Full
Dec 28
Full
Jan 4
Last Quarter
Jan 11
New
Jan 18
First Quarter

Hourly Weather History & Observations

Time (MST) Temp. Windchill Dew Point Humidity Pressure Visibility Wind Dir Wind Speed Gust Speed Precip Events Conditions
12:53 AM 6.1 °F -2.8 °F 1.0 °F 80% 29.73 in 10.0 mi ENE 4.6 mph - N/A   Clear
1:53 AM 8.1 °F -0.5 °F 5.0 °F 87% 29.73 in 10.0 mi NE 4.6 mph - N/A   Clear
2:53 AM 7.0 °F - 3.0 °F 84% 29.74 in 10.0 mi Calm Calm - N/A   Clear
3:53 AM 3.9 °F -3.4 °F -0.0 °F 84% 29.76 in 10.0 mi NNE 3.5 mph - N/A   Clear
4:53 AM 7.0 °F 0.1 °F 1.0 °F 77% 29.77 in 10.0 mi South 3.5 mph - N/A   Clear
5:53 AM 3.0 °F -8.0 °F -0.9 °F 84% 29.82 in 10.0 mi North 5.8 mph - N/A   Clear
6:53 AM 1.9 °F - -2.9 °F 80% 29.86 in 10.0 mi Calm Calm - N/A   Clear
7:53 AM 5.0 °F - -0.4 °F 78% 29.69 in 10.0 mi Calm Calm - N/A   Clear
8:53 AM 8.1 °F -2.0 °F 3.9 °F 83% 29.92 in 10.0 mi SE 5.8 mph - N/A   Clear
9:53 AM 10.0 °F -2.9 °F 6.1 °F 84% 29.94 in 10.0 mi ESE 9.2 mph - N/A   Clear
10:53 AM 15.1 °F 9.4 °F 8.1 °F 74% 29.91 in 10.0 mi South 3.5 mph - N/A   Clear
11:53 AM 21.9 °F 17.2 °F 10.9 °F 63% 29.86 in 9.0 mi Variable 3.5 mph - N/A   Clear
12:53 PM 26.1 °F 19.4 °F 12.0 °F 55% 29.83 in 10.0 mi ESE 5.8 mph - N/A   Clear
1:53 PM 30.9 °F 21.2 °F 15.1 °F 52% 29.80 in 10.0 mi ESE 12.7 mph - N/A   Clear
2:53 PM 30.9 °F 22.2 °F 16.0 °F 54% 29.83 in 10.0 mi SE 10.4 mph - N/A   Overcast
3:53 PM 28.0 °F 19.3 °F 16.0 °F 61% 29.88 in 10.0 mi SSE 9.2 mph - N/A   Partly Cloudy
4:53 PM 24.8 °F - 14.0 °F 64% 29.76 in 10.0 mi Calm Calm - N/A   Clear
5:53 PM 21.0 °F 13.4 °F 10.9 °F 65% 29.98 in 10.0 mi SSE 5.8 mph - N/A   Clear
6:53 PM 21.9 °F 13.4 °F 14.0 °F 72% 30.01 in 10.0 mi SE 6.9 mph - N/A   Partly Cloudy
7:53 PM 21.9 °F 14.5 °F 14.0 °F 72% 30.02 in 10.0 mi SE 5.8 mph - N/A   Overcast
8:53 PM 21.0 °F 14.6 °F 12.9 °F 71% 30.03 in 10.0 mi SSE 4.6 mph - N/A   Overcast
9:53 PM 21.0 °F 16.2 °F 14.0 °F 74% 30.04 in 10.0 mi SSE 3.5 mph - N/A   Overcast
10:53 PM 21.0 °F 16.2 °F 12.9 °F 71% 30.04 in 10.0 mi SE 3.5 mph - N/A   Overcast
11:53 PM 21.0 °F 16.2 °F 14.0 °F 74% 30.01 in 10.0 mi East 3.5 mph - N/A   Overcast